| time (UTC) | temp C | wind direction | speed KPH | gust KPH | rain 1hr cm | rain 24hr cm | rain mn cm | humidity % | barometer mb |
| 20260510175511 | 8 | 306 | 4.8 | 17.7 | 0.00 | 0.00 | 0.00 | 53 | 1020.3 |
| 20260510175016 | 8 | 340 | 8.0 | 17.7 | 0.00 | 0.00 | 0.00 | 49 | 1020.3 |
| 20260510174532 | 8 | 291 | 4.8 | 16.1 | 0.00 | 0.00 | 0.00 | 52 | 1020.2 |
| 20260510174011 | 8 | 329 | 3.2 | 16.1 | 0.00 | 0.00 | 0.00 | 55 | 1020.2 |
| 20260510173517 | 8 | 305 | 1.6 | 17.7 | 0.00 | 0.00 | 0.00 | 58 | 1020.2 |
| 20260510173035 | 8 | 303 | 1.6 | 17.7 | 0.00 | 0.00 | 0.00 | 56 | 1020.4 |
| 20260510172525 | 7 | 269 | 1.6 | 16.1 | 0.00 | 0.00 | 0.00 | 53 | 1020.3 |
| 20260510172015 | 7 | 289 | 4.8 | 16.1 | 0.00 | 0.00 | 0.00 | 54 | 1020.2 |
| 20260510171540 | 7 | 317 | 4.8 | 20.9 | 0.00 | 0.00 | 0.00 | 55 | 1020.2 |
| 20260510171014 | 7 | 329 | 6.4 | 20.9 | 0.00 | 0.00 | 0.00 | 53 | 1020.2 |
| 20260510170513 | 7 | 304 | 4.8 | 19.3 | 0.00 | 0.00 | 0.00 | 54 | 1020.2 |
| 20260510170032 | 7 | 360 | 4.8 | 19.3 | 0.00 | 0.00 | 0.00 | 57 | 1020.2 |
| 20260510165510 | 8 | 277 | 4.8 | 19.3 | 0.00 | 0.00 | 0.00 | 55 | 1020.1 |
| 20260510165011 | 8 | 34 | 3.2 | 19.3 | 0.00 | 0.00 | 0.00 | 57 | 1020.2 |
| 20260510164529 | 7 | 286 | 4.8 | 19.3 | 0.00 | 0.00 | 0.00 | 59 | 1020.2 |
| 20260510164011 | 7 | 355 | 3.2 | 9.7 | 0.00 | 0.00 | 0.00 | 56 | 1020.1 |
| 20260510163515 | 7 | 288 | 3.2 | 16.1 | 0.00 | 0.00 | 0.00 | 56 | 1019.9 |
| 20260510163032 | 7 | 307 | 4.8 | 16.1 | 0.00 | 0.00 | 0.00 | 57 | 1019.9 |
| 20260510162512 | 7 | 312 | 4.8 | 16.1 | 0.00 | 0.00 | 0.00 | 57 | 1019.9 |
| 20260510162011 | 7 | 288 | 4.8 | 9.7 | 0.00 | 0.00 | 0.00 | 55 | 1019.8 |
| 20260510161531 | 8 | 304 | 3.2 | 14.5 | 0.00 | 0.00 | 0.00 | 56 | 1019.6 |
| 20260510161011 | 7 | 302 | 4.8 | 14.5 | 0.00 | 0.00 | 0.00 | 56 | 1019.7 |
| 20260510160510 | 7 | 313 | 4.8 | 14.5 | 0.00 | 0.00 | 0.00 | 57 | 1019.6 |
| 20260510160032 | 7 | 296 | 3.2 | 14.5 | 0.00 | 0.00 | 0.00 | 59 | 1019.6 |
| 20260510155511 | 7 | 237 | 6.4 | 14.5 | 0.00 | 0.00 | 0.00 | 57 | 1019.5 |
| 20260510155012 | 7 | 261 | 3.2 | 14.5 | 0.00 | 0.00 | 0.00 | 57 | 1019.4 |
| 20260510154530 | 7 | 28 | 3.2 | 12.9 | 0.00 | 0.00 | 0.00 | 57 | 1019.4 |
| 20260510154011 | 7 | 257 | 3.2 | 12.9 | 0.00 | 0.00 | 0.00 | 57 | 1019.4 |
| 20260510153513 | 7 | 268 | 4.8 | 12.9 | 0.00 | 0.00 | 0.00 | 56 | 1019.3 |
| 20260510153040 | 7 | 279 | 3.2 | 12.9 | 0.00 | 0.00 | 0.00 | 57 | 1019.2 |
| 20260510152512 | 7 | 312 | 3.2 | 11.3 | 0.00 | 0.00 | 0.00 | 54 | 1019.1 |
| 20260510152014 | 7 | 304 | 3.2 | 16.1 | 0.00 | 0.00 | 0.00 | 60 | 1019.2 |
| 20260510151536 | 6 | 0 | 1.6 | 16.1 | 0.00 | 0.00 | 0.00 | 62 | 1019.2 |
| 20260510151013 | 6 | 345 | 3.2 | 16.1 | 0.00 | 0.00 | 0.00 | 59 | 1019.2 |
| 20260510150515 | 7 | 248 | 3.2 | 11.3 | 0.00 | 0.00 | 0.00 | 57 | 1019.0 |
| 20260510150031 | 7 | 256 | 4.8 | 11.3 | 0.00 | 0.00 | 0.00 | 57 | 1018.9 |
| 20260510145514 | 7 | 336 | 3.2 | 11.3 | 0.00 | 0.00 | 0.00 | 58 | 1018.8 |
| 20260510145012 | 7 | 304 | 4.8 | 11.3 | 0.00 | 0.00 | 0.00 | 59 | 1018.8 |
| 20260510144532 | 6 | 297 | 4.8 | 14.5 | 0.00 | 0.00 | 0.00 | 61 | 1018.9 |
| 20260510144012 | 6 | 259 | 4.8 | 16.1 | 0.00 | 0.00 | 0.00 | 56 | 1018.8 |
| 20260510143517 | 6 | 270 | 1.6 | 16.1 | 0.00 | 0.00 | 0.00 | 60 | 1018.8 |
| 20260510143030 | 6 | 321 | 4.8 | 16.1 | 0.00 | 0.00 | 0.00 | 57 | 1018.8 |
| 20260510142515 | 6 | 321 | 8.0 | 16.1 | 0.00 | 0.00 | 0.00 | 56 | 1018.7 |
| 20260510142017 | 6 | 355 | 4.8 | 16.1 | 0.00 | 0.00 | 0.00 | 57 | 1018.6 |
| 20260510141534 | 6 | 308 | 4.8 | 16.1 | 0.00 | 0.00 | 0.00 | 56 | 1018.6 |
| 20260510141009 | 6 | 307 | 4.8 | 17.7 | 0.00 | 0.00 | 0.00 | 57 | 1018.5 |
| 20260510140513 | 6 | 302 | 4.8 | 17.7 | 0.00 | 0.00 | 0.00 | 58 | 1018.5 |
| 20260510140029 | 6 | 0 | 3.2 | 12.9 | 0.00 | 0.00 | 0.00 | 58 | 1018.4 |
| 20260510135511 | 6 | 287 | 6.4 | 14.5 | 0.00 | 0.00 | 0.00 | 59 | 1018.5 |
| 20260510135015 | 6 | 317 | 3.2 | 14.5 | 0.00 | 0.00 | 0.00 | 61 | 1018.4 |
| 20260510134531 | 6 | 277 | 4.8 | 14.5 | 0.00 | 0.00 | 0.00 | 59 | 1018.3 |
| 20260510134010 | 6 | 355 | 3.2 | 12.9 | 0.00 | 0.00 | 0.00 | 60 | 1018.3 |
| 20260510133514 | 5 | 279 | 4.8 | 12.9 | 0.00 | 0.00 | 0.00 | 62 | 1018.3 |
| 20260510133030 | 5 | 355 | 1.6 | 9.7 | 0.00 | 0.00 | 0.00 | 68 | 1018.3 |
| 20260510132515 | 5 | 269 | 1.6 | 14.5 | 0.00 | 0.00 | 0.00 | 69 | 1018.3 |
| 20260510132017 | 5 | 243 | 3.2 | 14.5 | 0.00 | 0.00 | 0.00 | 71 | 1018.3 |
| 20260510131530 | 5 | 275 | 3.2 | 12.9 | 0.00 | 0.00 | 0.00 | 71 | 1018.3 |
| 20260510131013 | 5 | 279 | 3.2 | 12.9 | 0.00 | 0.00 | 0.00 | 73 | 1018.3 |
| 20260510130515 | 4 | 331 | 3.2 | 16.1 | 0.00 | 0.00 | 0.00 | 72 | 1018.4 |
| 20260510130044 | 4 | 306 | 4.8 | 16.1 | 0.00 | 0.00 | 0.00 | 73 | 1018.3 |
| 20260510125511 | 4 | 264 | 3.2 | 14.5 | 0.00 | 0.00 | 0.00 | 75 | 1018.2 |
| 20260510125017 | 3 | 298 | 3.2 | 14.5 | 0.00 | 0.00 | 0.00 | 75 | 1018.2 |
| 20260510124531 | 3 | 311 | 3.2 | 14.5 | 0.00 | 0.00 | 0.00 | 75 | 1018.0 |
| 20260510124009 | 3 | 0 | 1.6 | 12.9 | 0.00 | 0.00 | 0.00 | 76 | 1017.9 |
| 20260510123514 | 3 | 252 | 3.2 | 16.1 | 0.00 | 0.00 | 0.00 | 76 | 1017.9 |
| 20260510123030 | 3 | 317 | 4.8 | 16.1 | 0.00 | 0.00 | 0.00 | 75 | 1017.9 |
| 20260510122510 | 3 | 326 | 1.6 | 12.9 | 0.00 | 0.00 | 0.00 | 76 | 1017.8 |
| 20260510122016 | 3 | 235 | 3.2 | 17.7 | 0.00 | 0.00 | 0.00 | 76 | 1017.8 |
| 20260510121535 | 3 | 294 | 3.2 | 17.7 | 0.00 | 0.00 | 0.00 | 76 | 1017.7 |
| 20260510121013 | 3 | 295 | 3.2 | 12.9 | 0.00 | 0.00 | 0.00 | 75 | 1017.7 |
| 20260510120514 | 3 | 309 | 4.8 | 12.9 | 0.00 | 0.00 | 0.00 | 76 | 1017.6 |
| 20260510120033 | 3 | 245 | 3.2 | 11.3 | 0.00 | 0.00 | 0.00 | 76 | 1017.6 |
| 20260510115510 | 2 | 267 | 3.2 | 8.0 | 0.00 | 0.00 | 0.00 | 76 | 1017.6 |
| 20260510115014 | 2 | 262 | 0.0 | 9.7 | 0.00 | 0.00 | 0.00 | 76 | 1017.4 |
| 20260510114532 | 2 | 259 | 1.6 | 9.7 | 0.00 | 0.00 | 0.00 | 77 | 1017.4 |
| 20260510114013 | 2 | 0 | 1.6 | 9.7 | 0.00 | 0.00 | 0.00 | 76 | 1017.3 |
| 20260510113512 | 2 | 284 | 1.6 | 11.3 | 0.00 | 0.00 | 0.00 | 77 | 1017.2 |
| 20260510113030 | 2 | 289 | 1.6 | 11.3 | 0.00 | 0.00 | 0.00 | 77 | 1017.1 |
| 20260510112511 | 2 | 260 | 1.6 | 8.0 | 0.00 | 0.00 | 0.00 | 77 | 1017.0 |
| 20260510112010 | 2 | 265 | 1.6 | 8.0 | 0.00 | 0.00 | 0.00 | 77 | 1016.9 |
| 20260510111530 | 1 | 264 | 1.6 | 6.4 | 0.00 | 0.00 | 0.00 | 77 | 1016.9 |
| 20260510111010 | 1 | 0 | 1.6 | 9.7 | 0.00 | 0.00 | 0.00 | 76 | 1016.8 |
| 20260510110514 | 1 | 0 | 0.0 | 9.7 | 0.00 | 0.00 | 0.00 | 76 | 1016.7 |
| 20260510110040 | 1 | 0 | 0.0 | 6.4 | 0.00 | 0.00 | 0.00 | 76 | 1016.8 |
| 20260510105510 | 1 | 278 | 1.6 | 9.7 | 0.00 | 0.00 | 0.00 | 76 | 1016.7 |
| 20260510105011 | 1 | 0 | 1.6 | 9.7 | 0.00 | 0.00 | 0.00 | 76 | 1016.7 |
| 20260510104530 | 1 | 331 | 0.0 | 6.4 | 0.00 | 0.00 | 0.00 | 75 | 1016.6 |
| 20260510104016 | 1 | 331 | 1.6 | 6.4 | 0.00 | 0.00 | 0.00 | 75 | 1016.6 |
| 20260510103513 | 1 | 331 | 1.6 | 6.4 | 0.00 | 0.00 | 0.00 | 75 | 1016.4 |
| 20260510103032 | 1 | 331 | 1.6 | 4.8 | 0.00 | 0.00 | 0.00 | 75 | 1016.3 |
| 20260510102513 | 1 | 331 | 0.0 | 4.8 | 0.00 | 0.00 | 0.00 | 74 | 1016.3 |
| 20260510102012 | 1 | 0 | 0.0 | 3.2 | 0.00 | 0.00 | 0.00 | 74 | 1016.1 |
| 20260510101534 | 1 | 331 | 0.0 | 4.8 | 0.00 | 0.00 | 0.00 | 74 | 1016.1 |
| 20260510101009 | 2 | 0 | 0.0 | 4.8 | 0.00 | 0.00 | 0.00 | 73 | 1016.0 |
| 20260510100515 | 2 | 0 | 0.0 | 3.2 | 0.00 | 0.00 | 0.00 | 73 | 1016.0 |
| 20260510100031 | 2 | 0 | 1.6 | 4.8 | 0.00 | 0.00 | 0.00 | 73 | 1015.9 |
| 20260510095516 | 1 | 331 | 0.0 | 4.8 | 0.00 | 0.00 | 0.00 | 73 | 1015.9 |
| 20260510095013 | 2 | 331 | 1.6 | 4.8 | 0.00 | 0.00 | 0.00 | 73 | 1015.9 |
| 20260510094531 | 2 | 331 | 0.0 | 3.2 | 0.00 | 0.00 | 0.00 | 72 | 1015.7 |
| 20260510094012 | 2 | 0 | 0.0 | 3.2 | 0.00 | 0.00 | 0.00 | 72 | 1015.8 |
| 20260510093511 | 2 | 0 | 0.0 | 4.8 | 0.00 | 0.00 | 0.00 | 71 | 1015.6 |
| 20260510093032 | 2 | 331 | 1.6 | 4.8 | 0.00 | 0.00 | 0.00 | 71 | 1015.7 |
| 20260510092511 | 2 | 331 | 1.6 | 4.8 | 0.00 | 0.00 | 0.00 | 70 | 1015.6 |
| 20260510092015 | 2 | 331 | 0.0 | 3.2 | 0.00 | 0.00 | 0.00 | 70 | 1015.6 |
| 20260510091536 | 2 | 0 | 0.0 | 3.2 | 0.00 | 0.00 | 0.00 | 70 | 1015.5 |
| 20260510091011 | 2 | 0 | 0.0 | 1.6 | 0.00 | 0.00 | 0.00 | 70 | 1015.5 |
| 20260510090514 | 2 | 0 | 0.0 | 3.2 | 0.00 | 0.00 | 0.00 | 70 | 1015.5 |
| 20260510090031 | 2 | 0 | 0.0 | 3.2 | 0.00 | 0.00 | 0.00 | 70 | 1015.4 |
| 20260510085511 | 2 | 331 | 0.0 | 1.6 | 0.00 | 0.00 | 0.00 | 69 | 1015.4 |
| 20260510085013 | 2 | 0 | 0.0 | 0.0 | 0.00 | 0.00 | 0.00 | 69 | 1015.4 |
| 20260510084535 | 2 | 0 | 0.0 | 0.0 | 0.00 | 0.00 | 0.00 | 69 | 1015.3 |
| 20260510084017 | 2 | 0 | 0.0 | 0.0 | 0.00 | 0.00 | 0.00 | 69 | 1015.3 |
| 20260510083512 | 2 | 0 | 0.0 | 0.0 | 0.00 | 0.00 | 0.00 | 68 | 1015.2 |
| 20260510083028 | 2 | 0 | 0.0 | 0.0 | 0.00 | 0.00 | 0.00 | 67 | 1015.1 |
| 20260510082512 | 2 | 0 | 0.0 | 0.0 | 0.00 | 0.00 | 0.00 | 67 | 1015.1 |
| 20260510082012 | 2 | 0 | 0.0 | 0.0 | 0.00 | 0.00 | 0.00 | 66 | 1015.0 |
| 20260510081534 | 3 | 0 | 0.0 | 1.6 | 0.00 | 0.00 | 0.00 | 66 | 1015.0 |
| 20260510081009 | 3 | 0 | 0.0 | 1.6 | 0.00 | 0.00 | 0.00 | 66 | 1014.9 |
| 20260510080512 | 3 | 0 | 0.0 | 0.0 | 0.00 | 0.00 | 0.00 | 65 | 1014.8 |
| 20260510080031 | 3 | 0 | 0.0 | 0.0 | 0.00 | 0.00 | 0.00 | 66 | 1014.8 |
| 20260510075513 | 3 | 0 | 0.0 | 1.6 | 0.00 | 0.00 | 0.00 | 66 | 1014.8 |
| 20260510075012 | 3 | 0 | 0.0 | 1.6 | 0.00 | 0.00 | 0.00 | 66 | 1014.8 |
| 20260510074530 | 3 | 0 | 0.0 | 1.6 | 0.00 | 0.00 | 0.00 | 65 | 1014.8 |
| 20260510074016 | 3 | 0 | 0.0 | 0.0 | 0.00 | 0.00 | 0.00 | 65 | 1014.7 |
| 20260510073516 | 3 | 0 | 0.0 | 3.2 | 0.00 | 0.00 | 0.00 | 65 | 1014.7 |
| 20260510073032 | 3 | 0 | 0.0 | 3.2 | 0.00 | 0.00 | 0.00 | 66 | 1014.7 |
| 20260510072510 | 3 | 331 | 0.0 | 3.2 | 0.00 | 0.00 | 0.00 | 65 | 1014.7 |
| 20260510072017 | 3 | 0 | 0.0 | 3.2 | 0.00 | 0.00 | 0.00 | 66 | 1014.8 |
| 20260510071531 | 3 | 331 | 0.0 | 3.2 | 0.00 | 0.00 | 0.00 | 66 | 1014.7 |
| 20260510071010 | 3 | 0 | 0.0 | 4.8 | 0.00 | 0.00 | 0.00 | 67 | 1014.6 |
| 20260510070512 | 3 | 0 | 0.0 | 4.8 | 0.00 | 0.00 | 0.00 | 68 | 1014.7 |
| 20260510070036 | 3 | 0 | 0.0 | 4.8 | 0.00 | 0.00 | 0.00 | 68 | 1014.6 |
| 20260510065511 | 3 | 0 | 0.0 | 1.6 | 0.00 | 0.00 | 0.00 | 69 | 1014.7 |
| 20260510065014 | 3 | 0 | 0.0 | 1.6 | 0.00 | 0.00 | 0.00 | 68 | 1014.6 |
| 20260510064535 | 3 | 0 | 0.0 | 0.0 | 0.00 | 0.00 | 0.00 | 68 | 1014.5 |
| 20260510064010 | 3 | 0 | 0.0 | 0.0 | 0.00 | 0.00 | 0.00 | 68 | 1014.5 |
| 20260510063516 | 2 | 0 | 0.0 | 0.0 | 0.00 | 0.00 | 0.00 | 68 | 1014.6 |
| 20260510063034 | 2 | 0 | 0.0 | 0.0 | 0.00 | 0.00 | 0.00 | 69 | 1014.6 |
| 20260510062511 | 2 | 0 | 0.0 | 0.0 | 0.00 | 0.00 | 0.00 | 69 | 1014.7 |
| 20260510062014 | 2 | 0 | 0.0 | 0.0 | 0.00 | 0.00 | 0.00 | 69 | 1014.6 |
| 20260510061533 | 2 | 0 | 0.0 | 0.0 | 0.00 | 0.00 | 0.00 | 69 | 1014.6 |
| 20260510061009 | 2 | 0 | 0.0 | 0.0 | 0.00 | 0.00 | 0.00 | 70 | 1014.5 |
| 20260510060516 | 2 | 0 | 0.0 | 0.0 | 0.00 | 0.00 | 0.00 | 73 | 1014.5 |
| 20260510060032 | 2 | 0 | 0.0 | 0.0 | 0.00 | 0.00 | 0.00 | 70 | 1014.5 |
| 20260510055510 | 2 | 0 | 0.0 | 0.0 | 0.00 | 0.00 | 0.00 | 69 | 1014.5 |
| 20260510055013 | 2 | 0 | 0.0 | 0.0 | 0.00 | 0.00 | 0.00 | 71 | 1014.5 |
| 20260510054532 | 2 | 0 | 0.0 | 0.0 | 0.00 | 0.00 | 0.00 | 72 | 1014.5 |
| 20260510054016 | 2 | 0 | 0.0 | 0.0 | 0.00 | 0.00 | 0.00 | 72 | 1014.4 |
| 20260510053511 | 2 | 0 | 0.0 | 0.0 | 0.00 | 0.00 | 0.00 | 67 | 1014.4 |
| 20260510053034 | 2 | 0 | 0.0 | 0.0 | 0.00 | 0.00 | 0.00 | 66 | 1014.4 |
| 20260510052511 | 2 | 0 | 0.0 | 0.0 | 0.00 | 0.00 | 0.00 | 66 | 1014.4 |
| 20260510052017 | 3 | 0 | 0.0 | 0.0 | 0.00 | 0.00 | 0.00 | 64 | 1014.3 |
| 20260510051530 | 3 | 0 | 0.0 | 0.0 | 0.00 | 0.00 | 0.00 | 64 | 1014.4 |
| 20260510051011 | 3 | 0 | 0.0 | 0.0 | 0.00 | 0.00 | 0.00 | 64 | 1014.3 |
| 20260510050510 | 3 | 0 | 0.0 | 0.0 | 0.00 | 0.00 | 0.00 | 64 | 1014.4 |
| 20260510050033 | 3 | 0 | 0.0 | 0.0 | 0.00 | 0.00 | 0.00 | 63 | 1014.4 |
| 20260510045519 | 3 | 0 | 0.0 | 0.0 | 0.00 | 0.00 | 0.00 | 64 | 1014.4 |
| 20260510045013 | 3 | 0 | 0.0 | 0.0 | 0.00 | 0.00 | 0.00 | 64 | 1014.4 |
| 20260510044547 | 3 | 0 | 0.0 | 0.0 | 0.00 | 0.00 | 0.00 | 64 | 1014.4 |
| 20260510044011 | 3 | 0 | 0.0 | 0.0 | 0.00 | 0.00 | 0.00 | 64 | 1014.4 |
| 20260510043513 | 3 | 0 | 0.0 | 0.0 | 0.00 | 0.00 | 0.00 | 64 | 1014.4 |
| 20260510043030 | 3 | 0 | 0.0 | 0.0 | 0.00 | 0.00 | 0.00 | 64 | 1014.3 |
| 20260510042513 | 3 | 0 | 0.0 | 0.0 | 0.00 | 0.00 | 0.00 | 65 | 1014.3 |
| 20260510042015 | 3 | 0 | 0.0 | 0.0 | 0.00 | 0.00 | 0.00 | 64 | 1014.3 |
| 20260510041529 | 3 | 0 | 0.0 | 0.0 | 0.00 | 0.00 | 0.00 | 63 | 1014.3 |
| 20260510041011 | 3 | 0 | 0.0 | 0.0 | 0.00 | 0.00 | 0.00 | 63 | 1014.3 |
| 20260510040509 | 3 | 0 | 0.0 | 0.0 | 0.00 | 0.00 | 0.00 | 63 | 1014.3 |
| 20260510040032 | 3 | 0 | 0.0 | 0.0 | 0.00 | 0.00 | 0.00 | 62 | 1014.2 |
| 20260510035510 | 4 | 0 | 0.0 | 0.0 | 0.00 | 0.00 | 0.00 | 60 | 1014.2 |
| 20260510035011 | 4 | 0 | 0.0 | 0.0 | 0.00 | 0.00 | 0.00 | 60 | 1014.2 |
| 20260510034532 | 4 | 0 | 0.0 | 0.0 | 0.00 | 0.00 | 0.00 | 61 | 1014.1 |
| 20260510034011 | 4 | 0 | 0.0 | 0.0 | 0.00 | 0.00 | 0.00 | 59 | 1014.0 |
| 20260510033515 | 5 | 0 | 0.0 | 0.0 | 0.00 | 0.00 | 0.00 | 58 | 1014.0 |
| 20260510033030 | 5 | 0 | 0.0 | 0.0 | 0.00 | 0.00 | 0.00 | 58 | 1013.9 |
| 20260510032510 | 5 | 0 | 0.0 | 0.0 | 0.00 | 0.00 | 0.00 | 59 | 1014.0 |
| 20260510032017 | 5 | 0 | 0.0 | 0.0 | 0.00 | 0.00 | 0.00 | 58 | 1013.9 |
| 20260510031530 | 5 | 0 | 0.0 | 0.0 | 0.00 | 0.00 | 0.00 | 57 | 1013.9 |
| 20260510031011 | 5 | 0 | 0.0 | 0.0 | 0.00 | 0.00 | 0.00 | 57 | 1013.9 |
| 20260510030513 | 5 | 0 | 0.0 | 0.0 | 0.00 | 0.00 | 0.00 | 57 | 1013.8 |
| 20260510030030 | 6 | 0 | 0.0 | 0.0 | 0.00 | 0.00 | 0.00 | 56 | 1013.8 |
| 20260510025511 | 6 | 0 | 0.0 | 0.0 | 0.00 | 0.00 | 0.00 | 54 | 1013.8 |
| 20260510025014 | 6 | 0 | 0.0 | 0.0 | 0.00 | 0.00 | 0.00 | 54 | 1013.7 |
| 20260510024532 | 6 | 0 | 0.0 | 1.6 | 0.00 | 0.00 | 0.00 | 55 | 1013.6 |
| 20260510024012 | 6 | 0 | 0.0 | 1.6 | 0.00 | 0.00 | 0.00 | 55 | 1013.6 |
| 20260510023517 | 6 | 0 | 0.0 | 1.6 | 0.00 | 0.00 | 0.00 | 55 | 1013.5 |
| 20260510023032 | 6 | 0 | 0.0 | 4.8 | 0.00 | 0.00 | 0.00 | 54 | 1013.4 |
| 20260510022515 | 6 | 0 | 0.0 | 4.8 | 0.00 | 0.00 | 0.00 | 55 | 1013.4 |
| 20260510022018 | 6 | 0 | 0.0 | 4.8 | 0.00 | 0.00 | 0.00 | 53 | 1013.4 |
| 20260510021532 | 6 | 0 | 0.0 | 6.4 | 0.00 | 0.00 | 0.00 | 53 | 1013.3 |
| 20260510021011 | 6 | 0 | 1.6 | 6.4 | 0.00 | 0.00 | 0.00 | 52 | 1013.2 |
| 20260510020515 | 6 | 0 | 0.0 | 3.2 | 0.00 | 0.00 | 0.00 | 51 | 1013.0 |
| 20260510020032 | 7 | 0 | 0.0 | 4.8 | 0.00 | 0.00 | 0.00 | 51 | 1012.9 |
| 20260510015515 | 7 | 313 | 0.0 | 6.4 | 0.00 | 0.00 | 0.00 | 51 | 1012.8 |
| 20260510015010 | 7 | 0 | 0.0 | 6.4 | 0.00 | 0.00 | 0.00 | 51 | 1012.8 |
| 20260510014529 | 7 | 0 | 1.6 | 8.0 | 0.00 | 0.00 | 0.00 | 49 | 1012.7 |
| 20260510014010 | 7 | 349 | 1.6 | 8.0 | 0.00 | 0.00 | 0.00 | 50 | 1012.6 |
| 20260510013512 | 7 | 0 | 0.0 | 14.5 | 0.00 | 0.00 | 0.00 | 49 | 1012.4 |
| 20260510013029 | 7 | 302 | 3.2 | 14.5 | 0.00 | 0.00 | 0.00 | 48 | 1012.3 |
| 20260510012511 | 7 | 5 | 1.6 | 8.0 | 0.00 | 0.00 | 0.00 | 48 | 1012.1 |
| 20260510012015 | 7 | 292 | 1.6 | 12.9 | 0.00 | 0.00 | 0.00 | 48 | 1011.9 |
| 20260510011528 | 8 | 307 | 1.6 | 12.9 | 0.00 | 0.00 | 0.00 | 47 | 1011.9 |
| 20260510011011 | 8 | 300 | 3.2 | 12.9 | 0.00 | 0.00 | 0.00 | 46 | 1011.8 |
| 20260510010510 | 8 | 0 | 3.2 | 12.9 | 0.00 | 0.00 | 0.00 | 46 | 1011.7 |
| 20260510010032 | 8 | 307 | 3.2 | 12.9 | 0.00 | 0.00 | 0.00 | 44 | 1011.6 |
| 20260510005512 | 8 | 317 | 3.2 | 9.7 | 0.00 | 0.00 | 0.00 | 44 | 1011.5 |
| 20260510005018 | 9 | 288 | 1.6 | 9.7 | 0.00 | 0.00 | 0.00 | 44 | 1011.3 |
| 20260510004532 | 9 | 325 | 1.6 | 14.5 | 0.00 | 0.00 | 0.00 | 43 | 1011.3 |
| 20260510004011 | 9 | 360 | 3.2 | 17.7 | 0.00 | 0.00 | 0.00 | 42 | 1011.2 |
| 20260510003515 | 10 | 312 | 1.6 | 17.7 | 0.00 | 0.00 | 0.00 | 43 | 1011.2 |
| 20260510003033 | 10 | 284 | 8.0 | 17.7 | 0.00 | 0.00 | 0.00 | 41 | 1011.2 |
| 20260510002510 | 10 | 321 | 3.2 | 17.7 | 0.00 | 0.00 | 0.00 | 41 | 1011.0 |
| 20260510002013 | 10 | 246 | 3.2 | 14.5 | 0.00 | 0.00 | 0.00 | 43 | 1010.9 |
| 20260510001531 | 10 | 325 | 4.8 | 14.5 | 0.00 | 0.00 | 0.00 | 41 | 1010.8 |
| 20260510001011 | 10 | 331 | 3.2 | 12.9 | 0.00 | 0.00 | 0.00 | 41 | 1010.7 |
| 20260510000514 | 10 | 279 | 1.6 | 12.9 | 0.00 | 0.00 | 0.00 | 42 | 1010.7 |
| 20260510000036 | 10 | 273 | 3.2 | 20.9 | 0.00 | 0.00 | 0.00 | 42 | 1010.5 |
| 20260509235509 | 10 | 0 | 3.2 | 20.9 | 0.00 | 0.00 | 0.00 | 43 | 1010.4 |
| 20260509235012 | 10 | 343 | 6.4 | 19.3 | 0.00 | 0.00 | 0.00 | 40 | 1010.3 |
| 20260509234539 | 11 | 302 | 4.8 | 19.3 | 0.00 | 0.00 | 0.00 | 42 | 1010.3 |
| 20260509234014 | 10 | 316 | 6.4 | 19.3 | 0.00 | 0.00 | 0.00 | 39 | 1010.4 |
| 20260509233511 | 10 | 326 | 3.2 | 12.9 | 0.00 | 0.00 | 0.00 | 40 | 1010.3 |
| 20260509233030 | 10 | 323 | 4.8 | 12.9 | 0.00 | 0.00 | 0.00 | 40 | 1010.3 |
| 20260509232511 | 10 | 327 | 3.2 | 14.5 | 0.00 | 0.00 | 0.00 | 40 | 1010.2 |
| 20260509232017 | 10 | 268 | 3.2 | 14.5 | 0.00 | 0.00 | 0.00 | 42 | 1010.2 |
| 20260509231533 | 10 | 0 | 1.6 | 8.0 | 0.00 | 0.00 | 0.00 | 45 | 1010.2 |
| 20260509231010 | 10 | 0 | 0.0 | 8.0 | 0.00 | 0.00 | 0.00 | 46 | 1010.2 |
| 20260509230515 | 10 | 332 | 1.6 | 8.0 | 0.00 | 0.00 | 0.00 | 43 | 1010.1 |
| 20260509230031 | 10 | 0 | 1.6 | 16.1 | 0.00 | 0.00 | 0.00 | 43 | 1010.0 |
| 20260509225512 | 10 | 267 | 4.8 | 16.1 | 0.00 | 0.00 | 0.00 | 44 | 1010.0 |
| 20260509225015 | 10 | 0 | 0.0 | 11.3 | 0.00 | 0.00 | 0.00 | 43 | 1009.9 |
| 20260509224544 | 10 | 0 | 1.6 | 9.7 | 0.00 | 0.00 | 0.00 | 45 | 1010.0 |
| 20260509224009 | 10 | 329 | 1.6 | 11.3 | 0.00 | 0.00 | 0.00 | 42 | 1009.9 |
| 20260509223515 | 10 | 334 | 3.2 | 16.1 | 0.00 | 0.00 | 0.00 | 41 | 1009.9 |
| 20260509223030 | 10 | 348 | 1.6 | 16.1 | 0.00 | 0.00 | 0.00 | 44 | 1009.8 |
| 20260509222509 | 10 | 327 | 6.4 | 17.7 | 0.00 | 0.00 | 0.00 | 40 | 1009.8 |
| 20260509222013 | 10 | 296 | 4.8 | 17.7 | 0.00 | 0.00 | 0.00 | 40 | 1009.7 |
| 20260509221531 | 10 | 315 | 4.8 | 17.7 | 0.00 | 0.00 | 0.00 | 41 | 1009.8 |
| 20260509221011 | 10 | 325 | 1.6 | 12.9 | 0.00 | 0.00 | 0.00 | 44 | 1009.7 |
| 20260509220515 | 10 | 329 | 4.8 | 17.7 | 0.00 | 0.00 | 0.00 | 40 | 1009.7 |
| 20260509220029 | 10 | 0 | 1.6 | 22.5 | 0.00 | 0.00 | 0.00 | 42 | 1009.7 |
| 20260509215512 | 10 | 5 | 4.8 | 22.5 | 0.00 | 0.00 | 0.00 | 41 | 1009.7 |
| 20260509215015 | 10 | 306 | 4.8 | 22.5 | 0.00 | 0.00 | 0.00 | 41 | 1009.7 |
| 20260509214535 | 10 | 313 | 6.4 | 17.7 | 0.00 | 0.00 | 0.00 | 40 | 1009.6 |
| 20260509214012 | 10 | 257 | 3.2 | 12.9 | 0.00 | 0.00 | 0.00 | 39 | 1009.6 |
| 20260509213512 | 10 | 323 | 1.6 | 14.5 | 0.00 | 0.00 | 0.00 | 41 | 1009.6 |
| 20260509213030 | 10 | 295 | 3.2 | 17.7 | 0.00 | 0.00 | 0.00 | 43 | 1009.5 |
| 20260509212511 | 10 | 32 | 3.2 | 19.3 | 0.00 | 0.00 | 0.00 | 41 | 1009.5 |
| 20260509212018 | 10 | 43 | 4.8 | 19.3 | 0.00 | 0.00 | 0.00 | 40 | 1009.4 |
| 20260509211529 | 10 | 5 | 3.2 | 12.9 | 0.00 | 0.00 | 0.00 | 44 | 1009.5 |
| 20260509211010 | 10 | 319 | 4.8 | 14.5 | 0.00 | 0.00 | 0.00 | 41 | 1009.4 |
| 20260509210514 | 10 | 309 | 6.4 | 14.5 | 0.00 | 0.00 | 0.00 | 42 | 1009.5 |
| 20260509210031 | 10 | 67 | 4.8 | 19.3 | 0.00 | 0.00 | 0.00 | 41 | 1009.3 |
| 20260509205510 | 10 | 290 | 8.0 | 22.5 | 0.00 | 0.00 | 0.00 | 41 | 1009.3 |
| 20260509205011 | 10 | 294 | 8.0 | 27.4 | 0.00 | 0.00 | 0.00 | 40 | 1009.3 |
| 20260509204529 | 10 | 320 | 8.0 | 27.4 | 0.00 | 0.00 | 0.00 | 42 | 1009.2 |
| 20260509204012 | 10 | 0 | 3.2 | 17.7 | 0.00 | 0.00 | 0.00 | 42 | 1009.2 |
| 20260509203515 | 10 | 0 | 6.4 | 17.7 | 0.00 | 0.00 | 0.00 | 41 | 1009.2 |
| 20260509203035 | 11 | 17 | 3.2 | 16.1 | 0.00 | 0.00 | 0.00 | 41 | 1009.0 |
| 20260509202510 | 11 | 314 | 3.2 | 19.3 | 0.00 | 0.00 | 0.00 | 43 | 1009.1 |
| 20260509202016 | 11 | 313 | 4.8 | 19.3 | 0.00 | 0.00 | 0.00 | 42 | 1009.1 |
| 20260509201529 | 11 | 15 | 8.0 | 17.7 | 0.00 | 0.00 | 0.00 | 41 | 1009.0 |
| 20260509201011 | 10 | 240 | 3.2 | 22.5 | 0.00 | 0.00 | 0.00 | 43 | 1008.8 |
| 20260509200512 | 10 | 298 | 6.4 | 22.5 | 0.00 | 0.00 | 0.00 | 44 | 1009.0 |
| 20260509200030 | 10 | 293 | 8.0 | 22.5 | 0.00 | 0.00 | 0.00 | 42 | 1008.9 |
| 20260509195516 | 10 | 317 | 0.0 | 20.9 | 0.00 | 0.00 | 0.00 | 45 | 1008.7 |
| 20260509195013 | 10 | 313 | 8.0 | 20.9 | 0.00 | 0.00 | 0.00 | 40 | 1008.8 |
| 20260509194533 | 10 | 293 | 6.4 | 19.3 | 0.00 | 0.00 | 0.00 | 41 | 1008.8 |
| 20260509194010 | 10 | 316 | 4.8 | 17.7 | 0.00 | 0.00 | 0.00 | 43 | 1008.8 |
| 20260509193514 | 11 | 330 | 6.4 | 25.7 | 0.00 | 0.00 | 0.00 | 42 | 1008.6 |
| 20260509193032 | 11 | 32 | 8.0 | 25.7 | 0.00 | 0.00 | 0.00 | 42 | 1008.5 |
| 20260509192511 | 10 | 318 | 9.7 | 25.7 | 0.00 | 0.00 | 0.00 | 41 | 1008.5 |
| 20260509192013 | 11 | 258 | 3.2 | 14.5 | 0.00 | 0.00 | 0.00 | 44 | 1008.4 |
| 20260509191530 | 11 | 301 | 4.8 | 20.9 | 0.00 | 0.00 | 0.00 | 44 | 1008.4 |
| 20260509191013 | 11 | 342 | 9.7 | 20.9 | 0.00 | 0.00 | 0.00 | 42 | 1008.3 |
| 20260509190510 | 11 | 254 | 6.4 | 20.9 | 0.00 | 0.00 | 0.00 | 43 | 1008.3 |
| 20260509190031 | 10 | 331 | 6.4 | 20.9 | 0.00 | 0.00 | 0.00 | 43 | 1008.3 |
| 20260509185509 | 11 | 293 | 6.4 | 20.9 | 0.00 | 0.00 | 0.00 | 43 | 1008.0 |
| 20260509185014 | 11 | 323 | 6.4 | 20.9 | 0.00 | 0.00 | 0.00 | 42 | 1007.9 |
| 20260509184542 | 11 | 199 | 3.2 | 16.1 | 0.00 | 0.00 | 0.00 | 44 | 1007.9 |
| 20260509184010 | 10 | 323 | 4.8 | 16.1 | 0.00 | 0.00 | 0.00 | 47 | 1007.9 |
| 20260509183514 | 11 | 302 | 3.2 | 17.7 | 0.00 | 0.00 | 0.00 | 44 | 1007.9 |
| 20260509183029 | 11 | 284 | 4.8 | 17.7 | 0.00 | 0.00 | 0.00 | 44 | 1007.7 |
| 20260509182510 | 11 | 319 | 6.4 | 19.3 | 0.00 | 0.00 | 0.00 | 45 | 1007.6 |
| 20260509182015 | 10 | 340 | 4.8 | 19.3 | 0.00 | 0.00 | 0.00 | 46 | 1007.7 |
| 20260509181529 | 10 | 288 | 4.8 | 17.7 | 0.00 | 0.00 | 0.00 | 44 | 1007.5 |
| 20260509181011 | 11 | 283 | 8.0 | 17.7 | 0.00 | 0.00 | 0.00 | 43 | 1007.6 |
| 20260509180515 | 11 | 282 | 6.4 | 16.1 | 0.00 | 0.00 | 0.00 | 43 | 1007.4 |
| 20260509180053 | 11 | 284 | 4.8 | 16.1 | 0.00 | 0.00 | 0.00 | 44 | 1007.3 |